Cairo, Egypt

3:06 PM EET on January 23, 2018 (GMT +0200)
Cairo International Airport

Weather History for HECA - November, 2011

Change the Weather History Date:

Wednesday, November 16, 2011

  Actual Average Record
Temperature  
Mean Temperature 61 °F -  
Max Temperature 68 °F 70 °F 82 °F (2002)
Min Temperature 54 °F 53 °F 46 °F (2003)
Degree Days  
Heating Degree Days 4    
Growing Degree Days 11 (Base 50)    
Moisture  
Dew Point 45 °F    
Average Humidity 54    
Maximum Humidity 63    
Minimum Humidity 35    
Precipitation  
Precipitation 0.00 in 0.01 in - ()
Sea Level Pressure  
Sea Level Pressure 30.06 in    
Wind  
Wind Speed 11 mph ()    
Max Wind Speed 17 mph    
Max Gust Speed -    
Visibility 5.2 miles    
Events      
Averages and records for this station are not official NWS values.
T = Trace of Precipitation, MM = Missing Value Source: Averaged Metar Reports

Daily Weather History Graph

Daily Weather History Graph

Search for Another Location

Airport or City:

Trip Planner

Search our weather history database for the weather conditions in past years. The results will help you decide how hot, cold, wet, or windy it might be!

Date:

Astronomy

Nov. 16, 2011 Rise Set
Actual Time 6:20 AM EET 4:57 PM EET
Civil Twilight 5:54 AM EET 5:23 PM EET
Nautical Twilight 5:25 AM EET 5:52 PM EET
Astronomical Twilight 4:57 AM EET 6:20 PM EET
Moon 9:47 PM EET (11/16) 10:44 AM EET (11/16)
Length of Visible Light 11h 28m
Length of Day
10h 37m
Waning Gibbous, 73% of the Moon is Illuminated
Nov 16
Waning Gibbous
Nov 18
Last Quarter
Nov 25
New
Dec 2
First Quarter
Dec 10
Full

Hourly Weather History & Observations

Time (EET) Temp. Dew Point Humidity Pressure Visibility Wind Dir Wind Speed Gust Speed Precip Events Conditions
12:00 AM 59.0 °F 35.6 °F 42% 30.01 in - SSW 16.1 mph - N/A   Clear
1:00 AM 57.2 °F 37.4 °F 48% 30.04 in - SSW 13.8 mph - N/A   Clear
1:30 AM 57.2 °F 37.4 °F 48% 30.04 in - SSW 13.8 mph - N/A   Clear
2:00 AM 58 °F 38 °F 35% 30.04 in 6 mi SSW 11.5 mph - -  
2:00 AM 57.2 °F 37.4 °F 48% 30.04 in - SSW 11.5 mph - N/A   Clear
2:30 AM 57.2 °F 37.4 °F 48% 30.04 in - SSW 11.5 mph - N/A   Clear
3:00 AM 55.4 °F 39.2 °F 54% 30.04 in - South 12.7 mph - N/A   Clear
3:30 AM 55.4 °F 41.0 °F 58% 30.04 in - South 12.7 mph - N/A   Clear
4:00 AM 55.4 °F 41.0 °F 58% 30.04 in - SSW 12.7 mph - N/A   Clear
4:30 AM 55.4 °F 41.0 °F 58% 30.04 in - SSW 13.8 mph - N/A   Clear
5:00 AM 55.4 °F 41.0 °F 58% 30.04 in - South 11.5 mph - N/A   Clear
5:30 AM 55.4 °F 41.0 °F 58% 30.04 in - SSW 16.1 mph - N/A   Clear
6:00 AM 53.6 °F 41.0 °F 62% 30.04 in - SSW 13.8 mph - N/A   Clear
6:30 AM 55.4 °F 42.8 °F 63% 30.06 in - SSW 13.8 mph - N/A   Clear
7:00 AM 55.4 °F 42.8 °F 63% 30.06 in 3.7 mi SSW 12.7 mph - N/A   Unknown
7:30 AM 55.4 °F 42.8 °F 63% 30.06 in 3.7 mi SSW 12.7 mph - N/A   Unknown
8:00 AM 56 °F 44 °F 53% 30.09 in 4 mi SSW 12.7 mph - -   Haze
8:00 AM 57.2 °F 42.8 °F 59% 30.06 in 3.7 mi SSW 12.7 mph - N/A   Unknown
8:30 AM 57.2 °F 44.6 °F 63% 30.09 in 3.7 mi South 12.7 mph - N/A   Unknown
9:00 AM 59.0 °F 44.6 °F 59% 30.09 in 2.5 mi SSW 12.7 mph - N/A   Sand
9:30 AM 60.8 °F 44.6 °F 55% 30.09 in 2.5 mi SSW 12.7 mph - N/A   Sand
9:41 AM 60.8 °F 44.6 °F 55% 30.09 in 2.5 mi SSW 12.7 mph - N/A   Sand
10:00 AM 60.8 °F 44.6 °F 55% 30.09 in 3.7 mi South 13.8 mph - N/A   Unknown
10:30 AM 60.8 °F 46.4 °F 59% 30.09 in 3.7 mi SSW 12.7 mph - N/A   Unknown
11:00 AM 62.6 °F 44.6 °F 52% 30.09 in 3.7 mi South 15.0 mph - N/A   Unknown
11:15 AM 62.6 °F 44.6 °F 52% 30.09 in 3.7 mi South 15.0 mph - N/A   Unknown
11:30 AM 62.6 °F 46.4 °F 55% 30.09 in 3.7 mi SSW 17.3 mph - N/A   Unknown
12:00 PM 64.4 °F 46.4 °F 52% 30.06 in - SSW 12.7 mph - N/A   Clear
12:30 PM 66.2 °F 46.4 °F 49% 30.06 in - SSW 12.7 mph - N/A   Clear
1:00 PM 66.2 °F 46.4 °F 49% 30.06 in - SW 8.1 mph - N/A   Clear
1:30 PM 68.0 °F 48.2 °F 49% 30.04 in 6.2 mi SW 10.4 mph - N/A   Partly Cloudy
2:00 PM 69 °F 48 °F 36% 30.04 in 6 mi WSW 11.5 mph - -   Partly Cloudy
2:00 PM 69.8 °F 48.2 °F 46% 30.04 in 6.2 mi WSW 11.5 mph - N/A   Scattered Clouds
2:30 PM 69.8 °F 48.2 °F 46% 30.04 in 6.2 mi SSW 10.4 mph - N/A   Mostly Cloudy
3:00 PM 68.0 °F 46.4 °F 46% 30.04 in 6.2 mi South 9.2 mph - N/A   Overcast
3:30 PM 68.0 °F 46.4 °F 46% 30.04 in 6.2 mi South 8.1 mph - N/A   Overcast
4:00 PM 68.0 °F 46.4 °F 46% 30.04 in 6.2 mi SSW 9.2 mph - N/A   Overcast
4:30 PM 68.0 °F 48.2 °F 49% 30.04 in 6.2 mi West 8.1 mph - N/A   Mostly Cloudy
5:00 PM 66.2 °F 50.0 °F 56% 30.06 in 6.2 mi WNW 4.6 mph - N/A   Mostly Cloudy
5:30 PM 66.2 °F 51.8 °F 60% 30.06 in 6.2 mi NNW 4.6 mph - N/A   Overcast
6:00 PM 66.2 °F 50.0 °F 56% 30.06 in 6.2 mi West 4.6 mph - N/A   Mostly Cloudy
6:30 PM 66.2 °F 48.2 °F 52% 30.06 in 6.2 mi WSW 8.1 mph - N/A   Mostly Cloudy
7:00 PM 66.2 °F 48.2 °F 52% 30.06 in 6.2 mi WSW 8.1 mph - N/A   Mostly Cloudy
7:30 PM 64.4 °F 48.2 °F 56% 30.06 in 6.2 mi WSW 6.9 mph - N/A   Scattered Clouds
8:00 PM 65 °F 50 °F 48% 30.09 in 6 mi WSW 8.1 mph - -   Scattered Clouds
8:00 PM 64.4 °F 50.0 °F 59% 30.06 in 6.2 mi WSW 8.1 mph - N/A   Scattered Clouds
8:30 PM 64.4 °F 50.0 °F 59% 30.06 in 6.2 mi WSW 8.1 mph - N/A   Scattered Clouds
9:00 PM 64.4 °F 48.2 °F 56% 30.06 in 6.2 mi West 8.1 mph - N/A   Mostly Cloudy
9:30 PM 62.6 °F 48.2 °F 59% 30.06 in 6.2 mi WSW 5.8 mph - N/A   Mostly Cloudy
10:00 PM 62.6 °F 46.4 °F 55% 30.06 in 6.2 mi WSW 3.5 mph - N/A   Mostly Cloudy
10:30 PM 62.6 °F 46.4 °F 55% 30.06 in 6.2 mi WSW 3.5 mph - N/A   Mostly Cloudy
11:00 PM 60.8 °F 46.4 °F 59% 30.06 in 6.2 mi SW 3.5 mph - N/A   Mostly Cloudy
11:30 PM 60.8 °F 46.4 °F 59% 30.06 in 6.2 mi SW 3.5 mph - N/A   Scattered Clouds